www.pogodaiklimat.ru

Погода и климат >> Архив погоды >> Бразилия >> Минас-Жерайс >> Итаобин


ПОГОДА в Итаобине

  • Прогноз погоды в Итаобине
  • Монитор погоды в Итаобине

АРХИВ ПОГОДЫ в Итаобине

Время (UTC), дата Ветер
(напр.,м/с)
 
Видим.   Явления Облачность Т
(С)
Тd
(С)
f
(%)
Тe
(С)
Тes
(С)
Комфортность P
(гПа)
Po
(гПа)
Тmin
(С)
Tmax
(С)
R
(мм)
R24
(мм)
S
(см)
05 12.02 В 2
{4}
н/о н/о +26.7 +17.4 57 +31 +31 душно 1013.8 982.9
06 12.02 В 2
{4}
н/о н/о +25.8 +17.8 61 +30 +30 душно 1014.0 983.0
08 12.02 ЮВ 1
{3}
н/о н/о +24.5 +18.5 69 +29 +29 душно 1015.1 983.9
09 12.02 В 1
{3}
н/о н/о +24.0 +18.8 73 +29 +29 душно 1015.6 984.4
10 12.02 штиль 0
{2}
н/о н/о +25.0 +19.1 70 +30 +30 душно 1016.3 985.1
12 12.02 В 1
{3}
н/о н/о +29.4 +18.4 52 +34 +34 очень
душно
1015.9 985.2
13 12.02 В 1
{3}
н/о н/о +30.9 +19.0 49 +36 +36 очень
душно
1014.9 984.4
14 12.02 З 1
{3}
н/о н/о +32.7 +17.0 39 +36 +36 очень
душно
1013.8 983.5
15 12.02 СЗ 2
{4}
н/о н/о +33.6 +14.1 31 +35 +35 душно 1012.8 982.6
16 12.02 З 1
{3}
н/о н/о +35.1 +11.5 24 +35 +35 очень
жарко
1011.3 981.3
17 12.02 С 2
{4}
н/о н/о +36.1 +9.6 20 +35 +35 очень
жарко
1010.0 980.1
18 12.02 СВ 2
{4}
н/о н/о +37.1 +9.7 19 +36 +36 очень
жарко
1008.8 979.1
19 12.02 СВ 1
{4}
н/о н/о +37.1 +8.8 18 +35 +35 очень
жарко
1008.0 978.3
20 12.02 СВ 1
{3}
н/о н/о +37.1 +7.9 17 +35 +35 очень
жарко
1007.6 977.9
22 12.02 В 1
{4}
н/о н/о +33.0 +10.2 25 +32 +32 жарко 1008.9 978.8
23 12.02 Ю 1
{3}
н/о н/о +30.2 +10.3 29 +30 +30 жарко 1009.9 979.5
00 13.02 ЮВ 1
{2}
н/о н/о +29.2 +12.0 35 +30 +30 жарко 1011.0 980.4
02 13.02 Ю 1
{3}
н/о н/о +27.4 +14.3 45 +30 +30 жарко 1012.7 981.9
05 13.02 ЮВ 2
{3}
н/о н/о +23.6 +15.4 60 +27 +27 жарко 1012.3 981.1
06 13.02 ЮВ 1
{3}
н/о н/о +22.5 +15.5 65 +26 +26 жарко 1012.3 981.0
07 13.02 Ю 1
{3}
н/о н/о +21.8 +15.7 68 +25 +25 комфорт 1012.6 981.2
10 13.02 Ю 2
{3}
н/о н/о +21.6 +16.5 73 +25 +25 комфорт 1014.4 982.9
11 13.02 Ю 1
{3}
н/о н/о +25.4 +18.2 64 +30 +30 душно 1013.9 982.9
12 13.02 штиль 0
{2}
н/о н/о +28.7 +19.3 57 +34 +34 очень
душно
1013.3 982.6
13 13.02 З 1
{2}
н/о н/о +31.4 +19.0 48 +37 +37 очень
душно
1012.2 981.8
14 13.02 З 1
{3}
н/о н/о +34.0 +18.1 39 +38 +38 очень
душно
1011.1 981.0
15 13.02 С 1
{3}
н/о н/о +35.8 +12.6 25 +36 +36 очень
жарко
1009.8 979.9
17 13.02 З 1
{5}
н/о н/о +37.8 +11.1 20 +37 +37 очень
жарко
1006.8 977.2
18 13.02 З 1
{3}
н/о н/о +38.4 +11.1 19 +37 +37 очень
жарко
1005.8 976.3
20 13.02 штиль 0
{2}
н/о н/о +37.3 +10.3 20 +36 +36 очень
жарко
1005.4 975.8
23 13.02 СВ 1
{4}
н/о н/о +33.3 +11.9 27 +33 +33 жарко 1008.6 978.5
01 14.02 ЮВ 1
{2}
н/о н/о +30.8 +13.4 35 +32 +32 жарко 1011.0 980.6
02 14.02 ЮВ 1
{4}
н/о н/о +30.3 +17.8 47 +35 +35 очень
душно
1011.5 981.0
03 14.02 В 1
{5}
н/о н/о +29.1 +18.4 52 +34 +34 очень
душно
1011.9 981.3
04 14.02 В 1
{3}
н/о н/о +27.7 +19.1 59 +33 +33 очень
душно
1012.2 981.4
05 14.02 В 1
{4}
н/о н/о +27.2 +19.0 61 +32 +32 очень
душно
1012.5 981.7
07 14.02 ЮВ 1
{4}
н/о н/о +25.8 +18.7 65 +31 +31 очень
душно
1013.3 982.3
09 14.02 В 1
{3}
н/о н/о +25.7 +18.7 65 +31 +31 очень
душно
1014.6 983.6
11 14.02 ЮВ 1
{3}
н/о н/о +26.6 +19.1 63 +32 +32 очень
душно
1015.7 984.7
12 14.02 Ю 1
{2}
н/о н/о +27.9 +19.2 59 +33 +33 очень
душно
1015.7 984.9
13 14.02 СВ 2
{4}
н/о н/о +29.8 +18.8 52 +35 +35 очень
душно
1015.0 984.4
15 14.02 В 1
{4}
н/о н/о +33.9 +16.4 35 +37 +37 очень
душно
1012.5 982.3
19 14.02 ЮВ 2
{4}
н/о н/о +37.4 +15.8 28 +39 +39 очень
душно
1008.2 978.5
20 14.02 ЮВ 1
{4}
н/о н/о +35.8 +16.8 32 +38 +38 очень
душно
1008.6 978.7
21 14.02 ЮВ 2
{5}
н/о н/о +32.8 +16.7 38 +36 +36 очень
душно
1009.9 979.7
23 14.02 В 1
{5}
н/о н/о +29.8 +17.7 48 +34 +34 очень
душно
1011.8 981.3
00 15.02 ЮВ 1
{4}
н/о н/о +29.1 +18.0 51 +34 +34 очень
душно
1012.9 982.3
01 15.02 В 1
{4}
н/о н/о +28.2 +18.3 55 +33 +33 очень
душно
1014.1 983.3
02 15.02 В 2
{4}
н/о н/о +27.4 +19.1 61 +33 +33 очень
душно
1014.8 983.9
03 15.02 В 1
{4}
н/о н/о +26.6 +19.2 64 +32 +32 очень
душно
1014.5 983.6
04 15.02 В 1
{3}
н/о н/о +26.4 +19.1 64 +32 +32 очень
душно
1014.2 983.2
05 15.02 В 1
{2}
н/о н/о +25.9 +18.8 65 +31 +31 очень
душно
1013.8 982.8
06 15.02 Ю 1
{2}
н/о н/о +25.3 +18.6 66 +30 +30 душно 1014.0 982.9
07 15.02 штиль 0
{2}
н/о н/о +25.2 +18.8 68 +30 +30 душно 1013.8 982.7
08 15.02 штиль 0
{2}
н/о н/о +25.2 +19.0 69 +30 +30 душно 1014.1 983.0
09 15.02 ЮВ 1
{2}
н/о н/о +25.0 +18.9 69 +30 +30 душно 1014.8 983.7
10 15.02 штиль 0
{2}
н/о н/о +25.9 +19.4 67 +31 +31 очень
душно
1014.5 983.5
11 15.02 В 1
{3}
н/о н/о +27.1 +19.5 63 +33 +33 очень
душно
1014.7 983.8
12 15.02 СВ 1
{3}
н/о н/о +28.1 +19.0 58 +33 +33 очень
душно
1014.3 983.5
13 15.02 З 1
{3}
н/о н/о +30.6 +19.3 51 +36 +36 очень
душно
1013.6 983.1
14 15.02 СЗ 2
{3}
н/о н/о +32.3 +19.1 46 +38 +38 очень
душно
1012.2 981.9
15 15.02 С 1
{4}
н/о н/о +34.6 +18.1 38 +39 +39 очень
душно
1010.9 980.9
16 15.02 З 1
{3}
н/о н/о +34.0 +17.6 38 +38 +38 очень
душно
1009.6 979.5
18 15.02 З 2
{5}
н/о н/о +33.8 +18.2 40 +38 +38 очень
душно
1007.1 977.1
19 15.02 С 1
{4}
н/о н/о +34.2 +17.6 37 +38 +38 очень
душно
1006.4 976.5
20 15.02 СЗ 2
{5}
н/о н/о +29.8 +18.8 52 +35 +35 очень
душно
1007.6 977.2
21 15.02 СЗ 1
{4}
н/о н/о +31.1 +17.3 44 +35 +35 очень
душно
1008.6 978.3
22 15.02 В 2
{4}
н/о н/о +29.2 +18.0 51 +34 +34 очень
душно
1009.2 978.7
23 15.02 В 2
{5}
н/о н/о +27.8 +19.1 59 +33 +33 очень
душно
1010.3 979.6
00 16.02 В 2
{5}
н/о н/о +27.5 +19.9 63 +33 +33 очень
душно
1010.7 980.0
01 16.02 В 1
{4}
н/о н/о +27.3 +20.1 65 +34 +34 очень
душно
1011.9 981.1
02 16.02 В 2
{4}
н/о н/о +26.2 +20.7 72 +33 +33 очень
душно
1012.1 981.2 0.2
03 16.02 В 1
{4}
н/о н/о +25.9 +20.8 73 +32 +32 очень
душно
1011.4 980.5
04 16.02 В 2
{3}
н/о н/о +25.4 +20.8 76 +32 +32 очень
душно
1011.2 980.2
08 16.02 ЮВ 1
{2}
н/о н/о +24.4 +21.1 82 +31 +31 очень
душно
1011.2 980.1
10 16.02 штиль 0
{2}
н/о н/о +25.4 +21.6 80 +33 +33 очень
душно
1011.9 980.9
11 16.02 В 1
{3}
н/о н/о +27.7 +22.1 72 +36 +36 очень
душно
1012.0 981.2
12 16.02 В 2
{3}
н/о н/о +29.4 +22.1 65 +38 +38 очень
душно
1011.6 981.0
13 16.02 В 1
{3}
н/о н/о +31.8 +22.0 56 +40 +40 очень
душно
1011.0 980.7
14 16.02 СВ 2
{3}
н/о н/о +32.8 +20.6 49 +40 +40 очень
душно
1010.3 980.1
15 16.02 В 2
{3}
н/о н/о +32.2 +21.3 53 +40 +40 очень
душно
1009.5 979.3 0.2
16 16.02 В 2
{5}
н/о н/о +33.3 +20.2 46 +40 +40 очень
душно
1007.9 977.8
17 16.02 В 3
{4}
н/о н/о +32.7 +20.0 47 +39 +39 очень
душно
1006.7 976.6
18 16.02 В 2
{4}
н/о н/о +35.1 +19.1 39 +40 +40 очень
душно
1005.4 975.6
20 16.02 ЮВ 2
{5}
н/о н/о +25.4 +22.5 84 +33 +33 очень
душно
1008.6 977.7 8
21 16.02 штиль 0
{3}
н/о н/о +25.1 +22.6 86 +33 +33 очень
душно
1009.2 978.3
22 16.02 штиль 0
{2}
н/о н/о +25.3 +22.9 87 +34 +34 очень
душно
1009.6 978.7
23 16.02 штиль 0
{1}
н/о н/о +25.2 +23.0 88 +34 +34 очень
душно
1010.5 979.5
00 17.02 штиль 0
{1}
н/о н/о +25.1 +23.1 89 +34 +34 очень
душно
1010.9 979.9
01 17.02 З 1
{2}
н/о н/о +24.9 +22.6 87 +33 +33 очень
душно
1011.8 980.8
04 17.02 штиль 0 н/о н/о +24.2 +22.5 90 +32 +32 очень
душно
1011.1 980.0
05 17.02 З 1
{2}
н/о н/о +24.6 +22.9 90 +33 +33 очень
душно
1011.6 980.5
06 17.02 СЗ 1
{2}
н/о н/о +24.4 +22.3 88 +32 +32 очень
душно
1010.9 979.8 0.2
07 17.02 З 1
{3}
н/о н/о +23.7 +21.9 90 +31 +31 очень
душно
1010.8 979.7
09 17.02 СВ 1
{2}
н/о н/о +22.4 +21.2 93 +29 +29 очень
душно
1012.6 981.3 3
10 17.02 В 1
{2}
н/о н/о +22.8 +21.5 92 +30 +30 очень
душно
1013.4 982.1 3
11 17.02 В 1
{3}
н/о н/о +23.2 +21.7 91 +31 +31 очень
душно
1014.9 983.6 1
12 17.02 Ю 1
{2}
н/о н/о +23.7 +22.1 91 +31 +31 очень
душно
1014.8 983.6 2
13 17.02 штиль 0
{1}
н/о н/о +24.1 +22.4 90 +31 +31 очень
душно
1015.5 984.3 0.8
14 17.02 штиль 0
{1}
н/о н/о +24.6 +22.7 89 +32 +32 очень
душно
1015.2 984.0 0.6
15 17.02 штиль 0
{1}
н/о н/о +26.2 +23.1 83 +35 +35 очень
душно
1014.0 983.0 0.2
16 17.02 штиль 0
{1}
н/о н/о +27.1 +23.3 80 +37 +37 очень
душно
1013.3 982.4
17 17.02 ЮВ 1
{1}
н/о н/о +27.8 +23.0 75 +37 +37 очень
душно
1011.8 981.1
18 17.02 штиль 0
{2}
н/о н/о +29.7 +22.9 67 +40 +40 очень
душно
1010.3 979.8
19 17.02 ЮЗ 1
{2}
н/о н/о +30.3 +22.2 62 +39 +39 очень
душно
1009.4 979.0
20 17.02 штиль 0
{2}
н/о н/о +30.2 +22.2 62 +39 +39 очень
душно
1009.5 979.1
21 17.02 штиль 0
{1}
н/о н/о +28.6 +23.1 72 +38 +38 очень
душно
1010.4 979.8
22 17.02 штиль 0
{2}
н/о н/о +27.8 +22.7 74 +37 +37 очень
душно
1011.7 981.0
23 17.02 С 1
{2}
н/о н/о +26.7 +22.2 76 +35 +35 очень
душно
1013.1 982.2
01 18.02 ЮВ 1
{3}
н/о н/о +25.5 +21.6 79 +33 +33 очень
душно
1015.4 984.3
02 18.02 штиль 0
{2}
н/о н/о +25.2 +22.1 83 +33 +33 очень
душно
1014.9 983.8
03 18.02 В 1
{1}
н/о н/о +24.8 +22.1 85 +32 +32 очень
душно
1014.4 983.3
04 18.02 штиль 0
{1}
н/о н/о +23.9 +22.0 89 +31 +31 очень
душно
1014.2 983.0
05 18.02 штиль 0
{2}
н/о н/о +24.0 +22.2 90 +31 +31 очень
душно
1013.8 982.6
06 18.02 штиль 0 н/о н/о +24.3 +22.5 90 +32 +32 очень
душно
1013.8 982.6
07 18.02 В 1
{1}
н/о н/о +24.2 +22.6 91 +32 +32 очень
душно
1013.7 982.5
08 18.02 В 2
{3}
н/о н/о +24.2 +22.5 90 +32 +32 очень
душно
1014.1 982.9
09 18.02 В 2
{3}
н/о н/о +24.2 +22.5 90 +32 +32 очень
душно
1015.0 983.8
10 18.02 В 2
{3}
н/о н/о +24.1 +22.6 91 +32 +32 очень
душно
1015.6 984.4 0.8
11 18.02 ЮЗ 1
{3}
н/о н/о +24.2 +22.6 91 +32 +32 очень
душно
1016.3 985.1 0.8
12 18.02 штиль 0
{1}
н/о н/о +24.9 +23.0 89 +33 +33 очень
душно
1016.5 985.3 0.2
14 18.02 СВ 1
{1}
н/о н/о +26.4 +23.4 84 +36 +36 очень
душно
1015.7 984.7 0.2
16 18.02 В 2
{4}
н/о н/о +29.1 +23.0 70 +39 +39 очень
душно
1013.6 982.9
17 18.02 В 2
{4}
н/о н/о +30.2 +22.6 64 +40 +40 очень
душно
1012.2 981.7
19 18.02 В 1
{3}
н/о н/о +31.3 +20.8 54 +39 +39 очень
душно
1010.1 979.8
21 18.02 С 1
{2}
н/о н/о +26.0 +21.6 77 +33 +33 очень
душно
1012.0 981.1
00 19.02 З 1
{3}
н/о н/о +24.7 +21.6 83 +32 +32 очень
душно
1014.8 983.7
01 19.02 штиль 0
{2}
н/о н/о +24.6 +21.7 84 +31 +31 очень
душно
1015.7 984.5
02 19.02 штиль 0
{1}
н/о н/о +24.0 +21.6 86 +31 +31 очень
душно
1016.2 984.9

 

Местоположение метеостанции Итаобин (Минас-Жерайс, Бразилия): широта -16.58 долгота -41.48 высота над уровнем моря 268 м.

В архиве по умолчанию представлена погода в Итаобине за последнюю неделю. Архивные данные за месяц целиком и за предыдущие месяцы, начиная с января 2011 года, Вы можете получить, выбрав интересующий диапазон дат из раскрывающегося списка и нажав кнопку "Ввод!".


*Определитесь, кто Вы:
робот инопланетянин человек

Внимание! Время в таблицах - всемирное. Для получения местного времени необходимо прибавить поправку, которая равна -3 ч.

Смотрите также архив погоды в соседних городах и на ближайших метеорологических станциях:

Погода в Педра-Азуле (Минас-Жерайс, Бразилия) (68 км)
Погода в Арасуаи (Минас-Жерайс, Бразилия) (69 км)
Погода в Агуас-Вермельясе (Минас-Жерайс, Бразилия) (92 км)
Погода в Альменаре (Минас-Жерайс, Бразилия) (97 км)
Погода в Салинасе (Минас-Жерайс, Бразилия) (101 км)
Погода в Рио-Пардо-де-Минасе (Минас-Жерайс, Бразилия) (139 км)
Погода в Теофилу-Отони (Минас-Жерайс, Бразилия) (147 км)
Погода в Капелинье (Минас-Жерайс, Бразилия) (157 км)
Погода в Серра-дуз-Айморесе (Баия, Бразилия) (188 км)
Погода в Витория-да-Конкисте (Баия, Бразилия) (192 км)

Пояснения к столбцам:

Ветер - указаны скорость ветра в м/с - средняя за 10 мин, порывы в срок и между сроками (в фигурных скобках) и направление, откуда дует ветер: С - северный, СВ - северо-восточный, В - восточный, ЮВ - юго-восточный, Ю - южный, ЮЗ - юго-западный, З - западный, СЗ - северо-западный.
Видимость - горизонтальная дальность видимости в метрах или километрах. При видимости от 1 до 10 км при отсутствии осадков обычно наблюдается дымка, при ухудшении видимости до 1 км и менее - туман. В сухую погоду видимость может ухудшаться дымом, пылью или мглою.
Явления - указаны атмосферные явления, наблюдавшиеся в срок или в последний час перед сроком; фигурными скобками обозначены явления, наблюдавшиеся между сроками (за 1-3 часа до срока); квадратными скобками обозначены град или гололедные отложения с указанием их диаметра в мм.
Облачность - указаны через наклонную черту общая и нижняя облачность в баллах и высота нижней границы облаков в метрах; квадратными скобками обозначены формы облаков: Ci - перистые, Cs - перисто-слоистые, Cc - перисто-кучевые, Ac - высококучевые, As - высокослоистые, Sc - слоисто-кучевые, Ns - слоисто-дождевые, Cu - кучевые, Cb - кучево-дождевые. Подробнее классификацию облаков см. в Атласе облаков (PDF).
T - Температура воздуха - температура, измеренная на высоте 2 м над землей.
Td - Температура точки росы - температура, при понижении до которой содержащийся в воздухе водяной пар достигнет насыщения.
f - Относительная влажность воздуха - влажноcть воздуха, измеренная на высоте 2 м над землей.
Te - Эффективная температура - температура, которую ощущает одетый по сезону человек в тени. Характеристика душности погоды. При расчете учитывается влияние влажности воздуха и скорости ветра на теплоощущения человека.
Tes - Эффективная температура на солнце - температура, которую ощущает человек, с поправкой на солнечный нагрев. Характеристика знойности погоды. Зависит от высоты солнца над горизонтом, облачности и скорости ветра. Ночью, в пасмурную погоду, а также при ветре 12 м/с и более поправка равна нулю.
P - Атмосферное давление - приведенное к уровню моря атмосферное давление.
Po - Атмосферное давление - измеренное на уровне метеостанции атмосферное давление.
Tmin - Минимальная температура - минимум температуры воздуха на высоте 2 м над землей.
Tmax - Максимальная температура - максимум температуры воздуха на высоте 2 м над землей.
R - Количество осадков - Количество выпавших осадков за период времени, мм. При наведении курсора мыши на число - период времени, за который выпало указанное количество осадков.
R24 - Количество осадков - Количество выпавших осадков за 24 часа, мм.
S - Снежный покров - Высота снежного покрова, см. При наведении курсора мыши на число - состояние снежного покрова и степень покрытия местности в баллах.